,,PressureMeas_1m,,PRMeasQMR101_1,,RHStat155_1m_1,,SRMeasQMS101R_1m,,TAStat155_1m_1,,GenWind_1,,GenWind_1,
2017-09-18, 07:00:06,VALID,918.556,VALID,0.0,VALID,88.976,VALID,118.891,VALID,20.525,VALID,145.0,VALID,0.475,
2017-09-18, 07:01:06,VALID,918.564,VALID,0.0,VALID,88.179,VALID,138.888,VALID,20.65,VALID,104.0,VALID,0.421,
2017-09-18, 07:02:06,VALID,918.602,VALID,0.0,VALID,88.231,VALID,144.682,VALID,20.735,VALID,99.0,VALID,0.905,
2017-09-18, 07:03:06,VALID,918.613,VALID,0.0,VALID,87.798,VALID,150.942,VALID,20.737,VALID,145.0,VALID,1.173,
2017-09-18, 07:04:06,VALID,918.607,VALID,0.0,VALID,87.011,VALID,107.875,VALID,20.832,VALID,88.0,VALID,1.992,
2017-09-18, 07:05:06,VALID,918.626,VALID,0.0,VALID,86.48,VALID,155.391,VALID,20.885,VALID,162.0,VALID,1.127,
2017-09-18, 07:06:06,VALID,918.63,VALID,0.0,VALID,86.411,VALID,183.04,VALID,20.913,VALID,126.0,VALID,1.361,
2017-09-18, 07:07:06,VALID,918.642,VALID,0.0,VALID,87.217,VALID,142.231,VALID,20.922,VALID,144.0,VALID,1.45,
2017-09-18, 07:08:06,VALID,918.665,VALID,0.0,VALID,87.38,VALID,126.687,VALID,20.938,VALID,137.0,VALID,1.3,
2017-09-18, 07:09:06,VALID,918.686,VALID,0.0,VALID,87.024,VALID,101.457,VALID,20.9,VALID,114.0,VALID,1.839,
2017-09-18, 07:10:06,VALID,918.692,VALID,0.0,VALID,87.628,VALID,100.797,VALID,20.828,VALID,73.0,VALID,0.761,
2017-09-18, 07:11:06,VALID,918.728,VALID,0.0,VALID,88.143,VALID,106.465,VALID,20.742,VALID,93.0,VALID,1.233,
2017-09-18, 07:12:06,VALID,918.765,VALID,0.0,VALID,87.867,VALID,124.49,VALID,20.71,VALID,90.0,VALID,1.239,
2017-09-18, 07:13:06,VALID,918.776,VALID,0.0,VALID,87.508,VALID,206.935,VALID,20.695,VALID,96.0,VALID,1.398,
2017-09-18, 07:14:06,VALID,918.809,VALID,0.0,VALID,87.47,VALID,229.747,VALID,20.736,VALID,101.0,VALID,1.553,
2017-09-18, 07:15:06,VALID,918.83,VALID,0.0,VALID,87.15,VALID,217.554,VALID,20.794,VALID,100.0,VALID,1.56,
2017-09-18, 07:16:06,VALID,918.835,VALID,0.0,VALID,87.494,VALID,197.191,VALID,20.875,VALID,98.0,VALID,1.172,
2017-09-18, 07:17:06,VALID,918.855,VALID,0.0,VALID,87.342,VALID,109.791,VALID,20.946,VALID,92.0,VALID,1.162,
2017-09-18, 07:18:06,VALID,918.881,VALID,0.0,VALID,87.51,VALID,95.376,VALID,20.956,VALID,97.0,VALID,1.487,
2017-09-18, 07:19:06,VALID,918.886,VALID,0.0,VALID,87.692,VALID,95.276,VALID,20.912,VALID,93.0,VALID,1.154,
2017-09-18, 07:20:06,VALID,918.901,VALID,0.0,VALID,87.612,VALID,96.74,VALID,20.88,VALID,80.0,VALID,1.024,
2017-09-18, 07:21:06,VALID,918.909,VALID,0.0,VALID,88.174,VALID,98.811,VALID,20.865,VALID,56.0,VALID,0.59,
2017-09-18, 07:22:06,VALID,918.936,VALID,0.0,VALID,87.859,VALID,100.502,VALID,20.87,VALID,93.0,VALID,0.791,
2017-09-18, 07:23:06,VALID,918.947,VALID,0.0,VALID,87.312,VALID,101.896,VALID,20.837,VALID,97.0,VALID,1.124,
2017-09-18, 07:24:06,VALID,918.953,VALID,0.0,VALID,87.426,VALID,104.229,VALID,20.796,VALID,82.0,VALID,0.9,
2017-09-18, 07:25:06,VALID,918.957,VALID,0.0,VALID,87.917,VALID,107.801,VALID,20.788,VALID,67.0,VALID,0.674,
2017-09-18, 07:26:06,VALID,918.964,VALID,0.0,VALID,86.88,VALID,112.01,VALID,20.819,VALID,90.0,VALID,0.754,
2017-09-18, 07:27:06,VALID,918.96,VALID,0.0,VALID,86.64,VALID,115.97,VALID,20.862,VALID,57.0,VALID,0.641,
2017-09-18, 07:28:06,VALID,918.971,VALID,0.0,VALID,85.425,VALID,119.051,VALID,20.93,VALID,45.0,VALID,0.452,
2017-09-18, 07:29:06,VALID,918.993,VALID,0.0,VALID,85.8,VALID,121.363,VALID,21.046,VALID,43.0,VALID,0.172,
2017-09-18, 07:30:06,VALID,919.02,VALID,0.0,VALID,85.959,VALID,123.05,VALID,21.124,VALID,68.0,VALID,0.299,
2017-09-18, 07:31:06,VALID,919.038,VALID,0.0,VALID,85.343,VALID,125.579,VALID,21.164,VALID,67.0,VALID,0.537,
2017-09-18, 07:32:06,VALID,919.053,VALID,0.0,VALID,84.819,VALID,130.187,VALID,21.218,VALID,57.0,VALID,0.243,
2017-09-18, 07:33:06,VALID,919.071,VALID,0.0,VALID,85.238,VALID,135.86,VALID,21.307,VALID,66.0,VALID,0.5,
2017-09-18, 07:34:06,VALID,919.063,VALID,0.0,VALID,83.245,VALID,141.752,VALID,21.369,VALID,53.0,VALID,0.333,
2017-09-18, 07:35:06,VALID,919.067,VALID,0.0,VALID,82.769,VALID,150.061,VALID,21.449,VALID,51.0,VALID,0.22,
2017-09-18, 07:36:06,VALID,919.091,VALID,0.0,VALID,82.796,VALID,173.316,VALID,21.517,VALID,40.0,VALID,0.204,
2017-09-18, 07:37:06,VALID,919.061,VALID,0.0,VALID,83.092,VALID,236.428,VALID,21.612,VALID,32.0,VALID,0.021,
2017-09-18, 07:38:06,VALID,919.068,VALID,0.0,VALID,85.328,VALID,178.378,VALID,21.618,VALID,283.0,VALID,0.379,
2017-09-18, 07:39:06,VALID,919.084,VALID,0.0,VALID,86.613,VALID,174.515,VALID,21.391,VALID,257.0,VALID,0.297,
2017-09-18, 07:40:06,VALID,919.067,VALID,0.0,VALID,86.825,VALID,178.606,VALID,21.153,VALID,250.0,VALID,0.732,
2017-09-18, 07:41:06,VALID,919.083,VALID,0.0,VALID,88.356,VALID,187.056,VALID,20.981,VALID,247.0,VALID,0.219,
2017-09-18, 07:42:06,VALID,919.096,VALID,0.0,VALID,89.252,VALID,186.218,VALID,20.965,VALID,285.0,VALID,0.105,
2017-09-18, 07:43:06,VALID,919.126,VALID,0.0,VALID,88.784,VALID,195.842,VALID,21.046,VALID,240.0,VALID,0.17,
2017-09-18, 07:44:06,VALID,919.114,VALID,0.0,VALID,87.578,VALID,220.76,VALID,21.163,VALID,204.0,VALID,0.146,
2017-09-18, 07:45:06,VALID,919.148,VALID,0.0,VALID,86.686,VALID,227.724,VALID,21.296,VALID,150.0,VALID,0.239,
2017-09-18, 07:46:06,VALID,919.156,VALID,0.0,VALID,85.493,VALID,222.655,VALID,21.507,VALID,53.0,VALID,0.19,
2017-09-18, 07:47:06,VALID,919.18,VALID,0.0,VALID,83.563,VALID,230.158,VALID,21.726,VALID,146.0,VALID,0.764,
2017-09-18, 07:48:06,VALID,919.223,VALID,0.0,VALID,83.322,VALID,243.838,VALID,21.922,VALID,131.0,VALID,0.481,
2017-09-18, 07:49:06,VALID,919.242,VALID,0.0,VALID,82.575,VALID,265.328,VALID,22.037,VALID,118.0,VALID,1.272,
2017-09-18, 07:50:06,VALID,919.254,VALID,0.0,VALID,80.425,VALID,336.471,VALID,22.082,VALID,136.0,VALID,0.4,
2017-09-18, 07:51:06,VALID,919.298,VALID,0.0,VALID,80.352,VALID,371.724,VALID,22.219,VALID,133.0,VALID,0.617,
2017-09-18, 07:52:06,VALID,919.32,VALID,0.0,VALID,80.715,VALID,449.405,VALID,22.389,VALID,121.0,VALID,0.606,
2017-09-18, 07:53:06,VALID,919.34,VALID,0.0,VALID,79.419,VALID,502.02,VALID,22.616,VALID,90.0,VALID,1.253,
2017-09-18, 07:54:06,VALID,919.34,VALID,0.0,VALID,79.69,VALID,488.653,VALID,22.816,VALID,65.0,VALID,0.996,
2017-09-18, 07:55:06,VALID,919.378,VALID,0.0,VALID,79.073,VALID,443.206,VALID,22.987,VALID,74.0,VALID,1.24,
2017-09-18, 07:56:06,VALID,919.407,VALID,0.0,VALID,76.704,VALID,471.819,VALID,23.075,VALID,79.0,VALID,0.824,
2017-09-18, 07:57:06,VALID,919.436,VALID,0.0,VALID,76.594,VALID,536.312,VALID,23.074,VALID,81.0,VALID,1.048,
2017-09-18, 07:58:06,VALID,919.446,VALID,0.0,VALID,78.108,VALID,528.011,VALID,23.079,VALID,101.0,VALID,1.525,
2017-09-18, 07:59:06,VALID,919.456,VALID,0.0,VALID,78.389,VALID,523.359,VALID,23.249,VALID,110.0,VALID,0.82,
2017-09-18, 08:00:06,VALID,919.462,VALID,0.0,VALID,77.84,VALID,513.615,VALID,23.481,VALID,135.0,VALID,1.261,
2017-09-18, 08:01:06,VALID,919.476,VALID,0.0,VALID,75.771,VALID,452.421,VALID,23.67,VALID,106.0,VALID,2.192,
2017-09-18, 08:02:06,VALID,919.473,VALID,0.0,VALID,72.618,VALID,428.262,VALID,23.69,VALID,93.0,VALID,2.203,
2017-09-18, 08:03:06,VALID,919.49,VALID,0.0,VALID,71.088,VALID,453.157,VALID,23.574,VALID,90.0,VALID,1.422,
2017-09-18, 08:04:06,VALID,919.513,VALID,0.0,VALID,74.53,VALID,467.943,VALID,23.624,VALID,84.0,VALID,2.459,
2017-09-18, 08:05:06,VALID,919.547,VALID,0.0,VALID,73.195,VALID,312.469,VALID,23.597,VALID,97.0,VALID,2.528,
2017-09-18, 08:06:06,VALID,919.568,VALID,0.0,VALID,73.788,VALID,274.299,VALID,23.444,VALID,75.0,VALID,1.621,
2017-09-18, 08:07:06,VALID,919.598,VALID,0.0,VALID,75.855,VALID,260.58,VALID,23.399,VALID,72.0,VALID,0.818,
2017-09-18, 08:08:06,VALID,919.611,VALID,0.0,VALID,75.604,VALID,249.358,VALID,23.471,VALID,137.0,VALID,0.902,
2017-09-18, 08:09:06,VALID,919.644,VALID,0.0,VALID,72.632,VALID,241.649,VALID,23.488,VALID,85.0,VALID,2.185,
2017-09-18, 08:10:06,VALID,919.659,VALID,0.0,VALID,72.853,VALID,235.249,VALID,23.373,VALID,96.0,VALID,1.277,
2017-09-18, 08:11:06,VALID,919.685,VALID,0.0,VALID,74.972,VALID,228.261,VALID,23.296,VALID,51.0,VALID,2.081,
2017-09-18, 08:12:06,VALID,919.702,VALID,0.0,VALID,75.83,VALID,222.059,VALID,23.243,VALID,69.0,VALID,1.8,
2017-09-18, 08:13:06,VALID,919.709,VALID,0.0,VALID,74.977,VALID,215.832,VALID,23.197,VALID,65.0,VALID,1.979,
2017-09-18, 08:14:06,VALID,919.727,VALID,0.0,VALID,76.256,VALID,210.973,VALID,23.227,VALID,64.0,VALID,1.407,
2017-09-18, 08:15:06,VALID,919.759,VALID,0.0,VALID,74.956,VALID,208.454,VALID,23.2,VALID,75.0,VALID,2.037,
2017-09-18, 08:16:06,VALID,919.766,VALID,0.0,VALID,74.344,VALID,208.31,VALID,23.124,VALID,100.0,VALID,3.107,
2017-09-18, 08:17:06,VALID,919.792,VALID,0.0,VALID,73.975,VALID,209.909,VALID,23.131,VALID,98.0,VALID,2.79,
2017-09-18, 08:18:06,VALID,919.825,VALID,0.0,VALID,74.54,VALID,213.358,VALID,23.11,VALID,103.0,VALID,1.96,
2017-09-18, 08:19:06,VALID,919.873,VALID,0.0,VALID,75.08,VALID,218.433,VALID,23.111,VALID,102.0,VALID,2.231,
2017-09-18, 08:20:06,VALID,919.881,VALID,0.0,VALID,74.654,VALID,224.942,VALID,23.073,VALID,94.0,VALID,2.623,
2017-09-18, 08:21:06,VALID,919.875,VALID,0.0,VALID,75.399,VALID,231.576,VALID,23.003,VALID,57.0,VALID,1.714,
2017-09-18, 08:22:06,VALID,919.918,VALID,0.0,VALID,75.795,VALID,238.763,VALID,23.012,VALID,90.0,VALID,1.964,
2017-09-18, 08:23:06,VALID,919.945,VALID,0.0,VALID,75.475,VALID,247.119,VALID,23.012,VALID,119.0,VALID,2.643,
2017-09-18, 08:24:06,VALID,919.998,VALID,0.0,VALID,76.337,VALID,256.595,VALID,23.044,VALID,80.0,VALID,2.096,
2017-09-18, 08:25:06,VALID,919.984,VALID,0.0,VALID,77.14,VALID,267.997,VALID,22.995,VALID,35.0,VALID,1.261,
2017-09-18, 08:26:06,VALID,919.982,VALID,0.0,VALID,76.232,VALID,281.584,VALID,23.07,VALID,63.0,VALID,3.0,
2017-09-18, 08:27:06,VALID,920.01,VALID,0.0,VALID,75.219,VALID,294.946,VALID,23.145,VALID,86.0,VALID,2.623,
2017-09-18, 08:28:06,VALID,919.97,VALID,0.0,VALID,72.641,VALID,306.21,VALID,23.18,VALID,101.0,VALID,3.556,
2017-09-18, 08:29:06,VALID,919.995,VALID,0.0,VALID,73.629,VALID,320.66,VALID,23.201,VALID,57.0,VALID,3.528,
2017-09-18, 08:30:06,VALID,920.005,VALID,0.0,VALID,72.719,VALID,336.178,VALID,23.208,VALID,94.0,VALID,4.544,
2017-09-18, 08:31:06,VALID,919.985,VALID,0.0,VALID,71.47,VALID,355.946,VALID,23.261,VALID,77.0,VALID,2.989,
2017-09-18, 08:32:06,VALID,920.053,VALID,0.0,VALID,72.905,VALID,361.982,VALID,23.234,VALID,104.0,VALID,2.345,
2017-09-18, 08:33:06,VALID,920.063,VALID,0.0,VALID,73.629,VALID,354.305,VALID,23.252,VALID,92.0,VALID,2.795,
2017-09-18, 08:34:06,VALID,920.035,VALID,0.0,VALID,72.538,VALID,341.662,VALID,23.26,VALID,80.0,VALID,4.45,
2017-09-18, 08:35:06,VALID,920.045,VALID,0.0,VALID,72.778,VALID,339.678,VALID,23.197,VALID,82.0,VALID,3.674,
2017-09-18, 08:36:06,VALID,920.063,VALID,0.0,VALID,73.739,VALID,340.299,VALID,23.145,VALID,73.0,VALID,2.949,
2017-09-18, 08:37:06,VALID,920.091,VALID,0.0,VALID,72.581,VALID,336.283,VALID,23.17,VALID,82.0,VALID,2.563,
2017-09-18, 08:38:06,VALID,920.07,VALID,0.0,VALID,72.356,VALID,327.374,VALID,23.215,VALID,82.0,VALID,3.553,
2017-09-18, 08:39:06,VALID,920.082,VALID,0.0,VALID,72.826,VALID,324.947,VALID,23.225,VALID,78.0,VALID,2.691,
2017-09-18, 08:40:06,VALID,920.104,VALID,0.0,VALID,73.271,VALID,328.921,VALID,23.199,VALID,99.0,VALID,2.571,
2017-09-18, 08:41:06,VALID,920.081,VALID,0.0,VALID,73.594,VALID,333.575,VALID,23.22,VALID,93.0,VALID,3.607,
2017-09-18, 08:42:06,VALID,920.09,VALID,0.0,VALID,72.918,VALID,341.523,VALID,23.24,VALID,84.0,VALID,3.813,
2017-09-18, 08:43:06,VALID,920.077,VALID,0.0,VALID,73.524,VALID,365.935,VALID,23.214,VALID,74.0,VALID,2.575,
2017-09-18, 08:44:06,VALID,920.079,VALID,0.0,VALID,73.708,VALID,391.781,VALID,23.232,VALID,70.0,VALID,2.478,
2017-09-18, 08:45:06,VALID,920.072,VALID,0.0,VALID,72.525,VALID,449.254,VALID,23.308,VALID,91.0,VALID,4.251,
2017-09-18, 08:46:06,VALID,920.073,VALID,0.0,VALID,72.642,VALID,570.167,VALID,23.34,VALID,73.0,VALID,4.334,
2017-09-18, 08:47:06,VALID,920.058,VALID,0.0,VALID,73.341,VALID,406.678,VALID,23.391,VALID,65.0,VALID,2.687,
2017-09-18, 08:48:06,VALID,920.011,VALID,0.0,VALID,72.8,VALID,387.15,VALID,23.478,VALID,42.0,VALID,3.433,
2017-09-18, 08:49:06,VALID,920.093,VALID,0.0,VALID,73.373,VALID,425.661,VALID,23.555,VALID,97.0,VALID,2.995,
2017-09-18, 08:50:06,VALID,920.092,VALID,0.0,VALID,72.385,VALID,445.447,VALID,23.554,VALID,101.0,VALID,3.822,
2017-09-18, 08:51:06,VALID,920.084,VALID,0.0,VALID,72.814,VALID,375.987,VALID,23.518,VALID,83.0,VALID,2.942,
2017-09-18, 08:52:06,VALID,920.051,VALID,0.0,VALID,72.089,VALID,344.281,VALID,23.534,VALID,71.0,VALID,3.778,
2017-09-18, 08:53:06,VALID,920.079,VALID,0.0,VALID,71.318,VALID,331.576,VALID,23.506,VALID,97.0,VALID,3.602,
2017-09-18, 08:54:06,VALID,920.094,VALID,0.0,VALID,71.953,VALID,327.95,VALID,23.494,VALID,67.0,VALID,2.898,
2017-09-18, 08:55:06,VALID,920.092,VALID,0.0,VALID,72.114,VALID,333.645,VALID,23.514,VALID,82.0,VALID,4.233,
2017-09-18, 08:56:06,VALID,920.094,VALID,0.0,VALID,70.98,VALID,343.74,VALID,23.468,VALID,92.0,VALID,3.669,
2017-09-18, 08:57:06,VALID,920.11,VALID,0.0,VALID,72.05,VALID,368.348,VALID,23.412,VALID,87.0,VALID,4.187,
2017-09-18, 08:58:06,VALID,920.119,VALID,0.0,VALID,70.735,VALID,407.972,VALID,23.4,VALID,78.0,VALID,3.13,
2017-09-18, 08:59:06,VALID,920.087,VALID,0.0,VALID,72.263,VALID,475.871,VALID,23.484,VALID,48.0,VALID,3.221,
2017-09-18, 09:00:06,VALID,920.147,VALID,0.0,VALID,71.517,VALID,423.722,VALID,23.635,VALID,113.0,VALID,4.416,
2017-09-18, 09:01:06,VALID,920.113,VALID,0.0,VALID,70.903,VALID,491.911,VALID,23.679,VALID,113.0,VALID,4.484,
2017-09-18, 09:02:06,VALID,920.158,VALID,0.0,VALID,72.547,VALID,765.059,VALID,23.676,VALID,86.0,VALID,3.604,
2017-09-18, 09:03:06,VALID,920.183,VALID,0.0,VALID,72.119,VALID,876.009,VALID,23.721,VALID,75.0,VALID,3.171,
2017-09-18, 09:04:06,VALID,920.184,VALID,0.0,VALID,71.613,VALID,778.57,VALID,23.798,VALID,71.0,VALID,3.422,
2017-09-18, 09:05:06,VALID,920.215,VALID,0.0,VALID,72.497,VALID,759.332,VALID,24.02,VALID,65.0,VALID,2.465,
2017-09-18, 09:06:06,VALID,920.244,VALID,0.0,VALID,72.02,VALID,807.797,VALID,24.307,VALID,98.0,VALID,4.72,
2017-09-18, 09:07:06,VALID,920.257,VALID,0.0,VALID,68.061,VALID,711.916,VALID,24.215,VALID,94.0,VALID,5.015,
2017-09-18, 09:08:06,VALID,920.254,VALID,0.0,VALID,69.151,VALID,736.066,VALID,24.077,VALID,81.0,VALID,3.397,
2017-09-18, 09:09:06,VALID,920.283,VALID,0.0,VALID,70.998,VALID,759.484,VALID,24.063,VALID,77.0,VALID,2.972,
2017-09-18, 09:10:06,VALID,920.273,VALID,0.0,VALID,71.459,VALID,780.365,VALID,24.227,VALID,66.0,VALID,3.43,
2017-09-18, 09:11:06,VALID,920.288,VALID,0.0,VALID,71.254,VALID,751.879,VALID,24.276,VALID,62.0,VALID,2.803,
2017-09-18, 09:12:06,VALID,920.248,VALID,0.0,VALID,71.066,VALID,774.828,VALID,24.397,VALID,54.0,VALID,4.697,
2017-09-18, 09:13:06,VALID,920.277,VALID,0.0,VALID,71.435,VALID,811.706,VALID,24.447,VALID,72.0,VALID,3.001,
2017-09-18, 09:14:06,VALID,920.28,VALID,0.0,VALID,69.214,VALID,760.916,VALID,24.471,VALID,80.0,VALID,2.664,
2017-09-18, 09:15:06,VALID,920.31,VALID,0.0,VALID,70.197,VALID,716.53,VALID,24.428,VALID,74.0,VALID,3.263,
2017-09-18, 09:16:06,VALID,920.265,VALID,0.0,VALID,70.151,VALID,709.758,VALID,24.383,VALID,59.0,VALID,3.885,
2017-09-18, 09:17:06,VALID,920.224,VALID,0.0,VALID,69.669,VALID,569.532,VALID,24.498,VALID,49.0,VALID,4.278,
2017-09-18, 09:18:06,VALID,920.267,VALID,0.0,VALID,69.784,VALID,717.523,VALID,24.599,VALID,51.0,VALID,3.038,
2017-09-18, 09:19:06,VALID,920.265,VALID,0.0,VALID,68.819,VALID,469.091,VALID,24.64,VALID,93.0,VALID,3.368,
2017-09-18, 09:20:06,VALID,920.23,VALID,0.0,VALID,68.54,VALID,419.917,VALID,24.576,VALID,38.0,VALID,3.797,
2017-09-18, 09:21:06,VALID,920.223,VALID,0.0,VALID,69.375,VALID,525.793,VALID,24.49,VALID,93.0,VALID,5.384,
2017-09-18, 09:22:07,VALID,920.245,VALID,0.0,VALID,69.724,VALID,482.319,VALID,24.324,VALID,72.0,VALID,5.513,
2017-09-18, 09:23:07,VALID,920.205,VALID,0.0,VALID,69.985,VALID,444.287,VALID,24.186,VALID,58.0,VALID,5.531,
2017-09-18, 09:24:07,VALID,920.225,VALID,0.0,VALID,68.842,VALID,494.411,VALID,24.135,VALID,71.0,VALID,3.212,
2017-09-18, 09:25:07,VALID,920.238,VALID,0.0,VALID,70.861,VALID,454.05,VALID,24.111,VALID,61.0,VALID,3.893,
2017-09-18, 09:26:07,VALID,920.257,VALID,0.0,VALID,71.765,VALID,438.02,VALID,24.152,VALID,62.0,VALID,2.46,
2017-09-18, 09:27:07,VALID,920.271,VALID,0.0,VALID,72.609,VALID,485.698,VALID,24.265,VALID,85.0,VALID,2.005,
2017-09-18, 09:28:07,VALID,920.288,VALID,0.0,VALID,72.351,VALID,545.787,VALID,24.318,VALID,65.0,VALID,3.5,
2017-09-18, 09:29:07,VALID,920.25,VALID,0.0,VALID,69.973,VALID,652.748,VALID,24.359,VALID,50.0,VALID,4.57,
2017-09-18, 09:30:07,VALID,920.314,VALID,0.0,VALID,68.781,VALID,932.069,VALID,24.425,VALID,89.0,VALID,4.948,
2017-09-18, 09:31:07,VALID,920.324,VALID,0.0,VALID,70.25,VALID,1059.946,VALID,24.487,VALID,89.0,VALID,3.914,
2017-09-18, 09:32:07,VALID,920.323,VALID,0.0,VALID,71.299,VALID,1030.549,VALID,24.687,VALID,86.0,VALID,3.67,
2017-09-18, 09:33:07,VALID,920.375,VALID,0.0,VALID,69.429,VALID,836.507,VALID,24.815,VALID,64.0,VALID,3.532,
2017-09-18, 09:34:07,VALID,920.379,VALID,0.0,VALID,66.945,VALID,969.391,VALID,24.747,VALID,74.0,VALID,2.211,
2017-09-18, 09:35:07,VALID,920.378,VALID,0.0,VALID,68.621,VALID,832.426,VALID,24.741,VALID,70.0,VALID,3.463,
2017-09-18, 09:36:07,VALID,920.399,VALID,0.0,VALID,69.826,VALID,769.632,VALID,24.822,VALID,68.0,VALID,3.071,
2017-09-18, 09:37:07,VALID,920.436,VALID,0.0,VALID,68.939,VALID,1067.6,VALID,24.917,VALID,72.0,VALID,2.603,
2017-09-18, 09:38:07,VALID,920.404,VALID,0.0,VALID,68.185,VALID,1011.068,VALID,25.041,VALID,98.0,VALID,4.4,
2017-09-18, 09:39:07,VALID,920.454,VALID,0.0,VALID,69.002,VALID,951.043,VALID,25.128,VALID,99.0,VALID,4.293,
2017-09-18, 09:40:07,VALID,920.395,VALID,0.0,VALID,67.135,VALID,887.852,VALID,25.061,VALID,120.0,VALID,5.198,
2017-09-18, 09:41:07,VALID,920.454,VALID,0.0,VALID,67.963,VALID,848.676,VALID,25.065,VALID,96.0,VALID,4.443,
2017-09-18, 09:42:07,VALID,920.471,VALID,0.0,VALID,67.489,VALID,831.989,VALID,24.859,VALID,88.0,VALID,3.023,
2017-09-18, 09:43:07,VALID,920.498,VALID,0.0,VALID,68.993,VALID,1055.975,VALID,24.831,VALID,92.0,VALID,3.927,
2017-09-18, 09:44:07,VALID,920.425,VALID,0.0,VALID,67.895,VALID,1027.309,VALID,24.922,VALID,100.0,VALID,5.349,
2017-09-18, 09:45:07,VALID,920.438,VALID,0.0,VALID,67.238,VALID,1032.308,VALID,25.01,VALID,75.0,VALID,4.176,
2017-09-18, 09:46:07,VALID,920.391,VALID,0.0,VALID,67.971,VALID,1004.171,VALID,25.08,VALID,62.0,VALID,3.625,
2017-09-18, 09:47:07,VALID,920.405,VALID,0.0,VALID,68.341,VALID,965.93,VALID,25.205,VALID,72.0,VALID,4.499,
2017-09-18, 09:48:07,VALID,920.364,VALID,0.0,VALID,68.362,VALID,934.621,VALID,25.266,VALID,51.0,VALID,3.953,
2017-09-18, 09:49:07,VALID,920.336,VALID,0.0,VALID,66.747,VALID,914.918,VALID,25.387,VALID,36.0,VALID,3.117,
2017-09-18, 09:50:07,VALID,920.33,VALID,0.0,VALID,68.743,VALID,884.941,VALID,25.545,VALID,63.0,VALID,2.72,
2017-09-18, 09:51:07,VALID,920.361,VALID,0.0,VALID,68.108,VALID,881.57,VALID,25.661,VALID,93.0,VALID,3.636,
2017-09-18, 09:52:07,VALID,920.339,VALID,0.0,VALID,65.458,VALID,819.265,VALID,25.606,VALID,91.0,VALID,3.545,
2017-09-18, 09:53:07,VALID,920.312,VALID,0.0,VALID,66.384,VALID,863.089,VALID,25.378,VALID,96.0,VALID,4.809,
2017-09-18, 09:54:07,VALID,920.329,VALID,0.0,VALID,68.168,VALID,868.321,VALID,25.363,VALID,100.0,VALID,4.163,
2017-09-18, 09:55:07,VALID,920.303,VALID,0.0,VALID,66.715,VALID,861.72,VALID,25.344,VALID,87.0,VALID,5.463,
2017-09-18, 09:56:07,VALID,920.264,VALID,0.0,VALID,66.823,VALID,851.158,VALID,25.224,VALID,50.0,VALID,4.297,
2017-09-18, 09:57:07,VALID,920.292,VALID,0.0,VALID,68.916,VALID,860.136,VALID,25.359,VALID,53.0,VALID,2.696,
2017-09-18, 09:58:07,VALID,920.281,VALID,0.0,VALID,66.109,VALID,872.492,VALID,25.522,VALID,91.0,VALID,3.031,
2017-09-18, 09:59:07,VALID,920.279,VALID,0.0,VALID,66.53,VALID,874.107,VALID,25.495,VALID,98.0,VALID,3.314,
2017-09-18, 10:00:07,VALID,920.249,VALID,0.0,VALID,67.443,VALID,874.666,VALID,25.428,VALID,81.0,VALID,2.773,
2017-09-18, 10:01:07,VALID,920.169,VALID,0.0,VALID,67.904,VALID,873.178,VALID,25.505,VALID,92.0,VALID,4.106,
2017-09-18, 10:02:07,VALID,920.148,VALID,0.0,VALID,66.005,VALID,870.658,VALID,25.612,VALID,108.0,VALID,4.368,
2017-09-18, 10:03:07,VALID,920.13,VALID,0.0,VALID,66.324,VALID,874.692,VALID,25.553,VALID,106.0,VALID,3.704,
2017-09-18, 10:04:07,VALID,920.086,VALID,0.0,VALID,65.741,VALID,885.034,VALID,25.525,VALID,102.0,VALID,3.628,
2017-09-18, 10:05:07,VALID,920.063,VALID,0.0,VALID,65.28,VALID,788.337,VALID,25.41,VALID,109.0,VALID,5.647,
2017-09-18, 10:06:07,VALID,920.031,VALID,0.0,VALID,66.993,VALID,783.61,VALID,25.302,VALID,82.0,VALID,4.132,
2017-09-18, 10:07:07,VALID,920.051,VALID,0.0,VALID,65.921,VALID,698.302,VALID,25.248,VALID,82.0,VALID,5.099,
2017-09-18, 10:08:07,VALID,920.082,VALID,0.0,VALID,68.222,VALID,762.151,VALID,25.143,VALID,119.0,VALID,3.902,
2017-09-18, 10:09:07,VALID,920.037,VALID,0.0,VALID,67.256,VALID,872.13,VALID,25.272,VALID,108.0,VALID,4.113,
2017-09-18, 10:10:07,VALID,920.076,VALID,0.0,VALID,68.24,VALID,845.302,VALID,25.398,VALID,84.0,VALID,2.905,
2017-09-18, 10:11:07,VALID,920.004,VALID,0.0,VALID,67.797,VALID,777.081,VALID,25.54,VALID,61.0,VALID,4.018,
2017-09-18, 10:12:07,VALID,920.047,VALID,0.0,VALID,66.653,VALID,771.783,VALID,25.459,VALID,97.0,VALID,3.797,
2017-09-18, 10:13:07,VALID,920.025,VALID,0.0,VALID,66.298,VALID,860.31,VALID,25.358,VALID,118.0,VALID,4.099,
2017-09-18, 10:14:07,VALID,920.007,VALID,0.0,VALID,66.934,VALID,876.158,VALID,25.424,VALID,107.0,VALID,5.372,
2017-09-18, 10:15:07,VALID,920.006,VALID,0.0,VALID,65.83,VALID,883.336,VALID,25.353,VALID,106.0,VALID,5.095,
2017-09-18, 10:16:07,VALID,919.997,VALID,0.0,VALID,67.762,VALID,885.056,VALID,25.372,VALID,103.0,VALID,2.858,
2017-09-18, 10:17:07,VALID,920.002,VALID,0.0,VALID,67.977,VALID,896.81,VALID,25.606,VALID,86.0,VALID,3.473,
2017-09-18, 10:18:07,VALID,919.972,VALID,0.0,VALID,65.899,VALID,900.094,VALID,25.581,VALID,103.0,VALID,3.293,
2017-09-18, 10:19:07,VALID,919.98,VALID,0.0,VALID,67.672,VALID,909.307,VALID,25.591,VALID,72.0,VALID,4.443,
2017-09-18, 10:20:07,VALID,919.994,VALID,0.0,VALID,64.534,VALID,787.171,VALID,25.415,VALID,96.0,VALID,5.705,
2017-09-18, 10:21:07,VALID,919.968,VALID,0.0,VALID,66.124,VALID,919.67,VALID,25.294,VALID,67.0,VALID,2.839,
2017-09-18, 10:22:07,VALID,919.981,VALID,0.0,VALID,67.708,VALID,918.073,VALID,25.473,VALID,89.0,VALID,3.198,
2017-09-18, 10:23:07,VALID,919.985,VALID,0.0,VALID,68.86,VALID,938.017,VALID,25.79,VALID,82.0,VALID,2.741,
2017-09-18, 10:24:07,VALID,919.966,VALID,0.0,VALID,66.599,VALID,955.337,VALID,26.008,VALID,80.0,VALID,2.784,
2017-09-18, 10:25:07,VALID,919.949,VALID,0.0,VALID,64.137,VALID,948.776,VALID,25.908,VALID,107.0,VALID,3.668,
2017-09-18, 10:26:07,VALID,919.955,VALID,0.0,VALID,65.88,VALID,979.678,VALID,25.619,VALID,67.0,VALID,3.165,
2017-09-18, 10:27:07,VALID,919.918,VALID,0.0,VALID,67.082,VALID,984.139,VALID,25.737,VALID,53.0,VALID,3.192,
2017-09-18, 10:28:07,VALID,919.929,VALID,0.0,VALID,67.226,VALID,997.791,VALID,25.961,VALID,67.0,VALID,2.892,
2017-09-18, 10:29:07,VALID,919.966,VALID,0.0,VALID,65.217,VALID,964.06,VALID,25.947,VALID,71.0,VALID,3.038,
2017-09-18, 10:30:07,VALID,919.967,VALID,0.0,VALID,64.812,VALID,975.841,VALID,25.807,VALID,99.0,VALID,5.406,
2017-09-18, 10:31:07,VALID,919.965,VALID,0.0,VALID,64.147,VALID,861.812,VALID,25.573,VALID,104.0,VALID,4.967,
2017-09-18, 10:32:07,VALID,919.94,VALID,0.0,VALID,66.286,VALID,835.271,VALID,25.496,VALID,117.0,VALID,5.063,
2017-09-18, 10:33:07,VALID,919.986,VALID,0.0,VALID,65.828,VALID,816.052,VALID,25.591,VALID,92.0,VALID,3.505,
2017-09-18, 10:34:07,VALID,919.982,VALID,0.0,VALID,65.765,VALID,767.033,VALID,25.494,VALID,110.0,VALID,4.335,
2017-09-18, 10:35:07,VALID,920.007,VALID,0.0,VALID,66.141,VALID,824.75,VALID,25.511,VALID,97.0,VALID,4.229,
2017-09-18, 10:36:07,VALID,919.996,VALID,0.0,VALID,65.419,VALID,861.089,VALID,25.365,VALID,98.0,VALID,4.521,